• en Suisse
  • Liste des pays
  • À 7 jours
  • Température de l'eau
  • Carte satellitaire
  • Carte météo
  • Widgets météo
  • user-avatar
    Se connecter

    Météo par heure à Borovoe

    Ce jour, 23 Septembre, Dimanche

    Heure Température Précipitation Vent Pression Humidité
    00:00 +18°C° 0 mm 4 m/s 750 mmHg 66%
    01:00 +17°C° 0 mm 5 m/s 749 mmHg 67%
    02:00 +16°C° 0 mm 5 m/s 749 mmHg 68%
    03:00 +16°C° 0 mm 5 m/s 748 mmHg 70%
    04:00 +16°C° 0 mm 5 m/s 748 mmHg 70%
    05:00 +15°C° 0 mm 5 m/s 747 mmHg 71%
    06:00 +15°C° 0 mm 5 m/s 747 mmHg 72%
    07:00 +16°C° 0 mm 6 m/s 746 mmHg 68%
    08:00 +17°C° 0 mm 7 m/s 745 mmHg 64%
    09:00 +18°C° 0 mm 7 m/s 745 mmHg 60%
    10:00 +20°C° 0 mm 8 m/s 745 mmHg 57%
    11:00 +21°C° 0 mm 8 m/s 745 mmHg 54%
    12:00 +22°C° 0 mm 8 m/s 745 mmHg 51%
    13:00 +18°C° 0.5 mm 8 m/s 745 mmHg 61%
    14:00 +16°C° 0.5 mm 7 m/s 745 mmHg 70%
    15:00 +13°C° 0.5 mm 6 m/s 746 mmHg 80%
    16:00 +12°C° 0.7 mm 5 m/s 746 mmHg 82%
    17:00 +11°C° 0.7 mm 4 m/s 746 mmHg 84%
    18:00 +10°C° 0.7 mm 3 m/s 747 mmHg 87%
    19:00 +10°C° 0.1 mm 3 m/s 747 mmHg 87%
    20:00 +10°C° 0.1 mm 2 m/s 747 mmHg 88%
    21:00 +10°C° 0.1 mm 2 m/s 747 mmHg 88%
    22:00 +10°C° 0 mm 2 m/s 747 mmHg 89%
    23:00 +9°C° 0 mm 2 m/s 747 mmHg 91%

    Demain, 24 Septembre, Lundi

    Heure Température Précipitation Vent Pression Humidité
    00:00 +9°C° 0 mm 2 m/s 747 mmHg 92%
    01:00 +9°C° 0 mm 2 m/s 748 mmHg 92%
    02:00 +8°C° 0 mm 2 m/s 748 mmHg 93%
    03:00 +8°C° 0 mm 3 m/s 748 mmHg 93%
    04:00 +8°C° 0 mm 2 m/s 748 mmHg 93%
    05:00 +7°C° 0 mm 2 m/s 748 mmHg 93%
    06:00 +7°C° 0 mm 2 m/s 748 mmHg 93%
    07:00 +9°C° 0 mm 3 m/s 748 mmHg 88%
    08:00 +10°C° 0 mm 3 m/s 748 mmHg 82%
    09:00 +11°C° 0 mm 3 m/s 748 mmHg 77%
    10:00 +13°C° 0 mm 3 m/s 748 mmHg 69%
    11:00 +14°C° 0 mm 4 m/s 748 mmHg 62%
    12:00 +17°C° 0 mm 4 m/s 748 mmHg 54%
    13:00 +15°C° 0 mm 4 m/s 747 mmHg 54%
    14:00 +15°C° 0 mm 5 m/s 747 mmHg 54%
    15:00 +15°C° 0 mm 5 m/s 746 mmHg 53%
    16:00 +14°C° 0.2 mm 5 m/s 746 mmHg 60%
    17:00 +13°C° 0.2 mm 5 m/s 745 mmHg 66%
    18:00 +12°C° 0.2 mm 5 m/s 744 mmHg 73%
    19:00 +11°C° 1.5 mm 6 m/s 743 mmHg 76%
    20:00 +10°C° 1.5 mm 7 m/s 742 mmHg 80%
    21:00 +10°C° 1.5 mm 8 m/s 742 mmHg 83%
    22:00 +10°C° 1.4 mm 9 m/s 740 mmHg 83%
    23:00 +11°C° 1.4 mm 9 m/s 739 mmHg 83%

    Après-demain, 25 Septembre, Mardi

    Heure Température Précipitation Vent Pression Humidité
    00:00 +11°C° 1.4 mm 10 m/s 738 mmHg 82%
    01:00 +11°C° 0.3 mm 10 m/s 737 mmHg 82%
    02:00 +11°C° 0.3 mm 9 m/s 737 mmHg 82%
    03:00 +11°C° 0.3 mm 9 m/s 736 mmHg 82%
    04:00 +10°C° 0.1 mm 8 m/s 736 mmHg 81%
    05:00 +9°C° 0.1 mm 7 m/s 736 mmHg 80%
    06:00 +8°C° 0.1 mm 7 m/s 736 mmHg 80%
    07:00 +9°C° 0 mm 7 m/s 737 mmHg 79%
    08:00 +9°C° 0 mm 7 m/s 737 mmHg 77%
    09:00 +9°C° 0 mm 7 m/s 737 mmHg 76%
    10:00 +9°C° 0 mm 8 m/s 738 mmHg 75%
    11:00 +9°C° 0 mm 8 m/s 738 mmHg 73%
    12:00 +10°C° 0 mm 8 m/s 739 mmHg 72%
    13:00 +9°C° 0 mm 8 m/s 739 mmHg 71%
    14:00 +9°C° 0 mm 8 m/s 740 mmHg 70%
    15:00 +9°C° 0 mm 8 m/s 740 mmHg 70%
    16:00 +9°C° 0 mm 8 m/s 741 mmHg 70%
    17:00 +7°C° 0 mm 8 m/s 741 mmHg 71%
    18:00 +8°C° 0 mm 7 m/s 742 mmHg 71%
    19:00 +8°C° 0 mm 7 m/s 742 mmHg 72%
    20:00 +6°C° 0 mm 7 m/s 743 mmHg 72%
    21:00 +6°C° 0 mm 7 m/s 743 mmHg 73%
    22:00 +6°C° 0.2 mm 7 m/s 744 mmHg 75%
    23:00 +5°C° 0.2 mm 7 m/s 744 mmHg 77%

    26 Septembre, Mercredi

    Heure Température Précipitation Vent Pression Humidité
    00:00 +5°C° 0.2 mm 7 m/s 745 mmHg 79%
    01:00 +5°C° 0.3 mm 7 m/s 746 mmHg 80%
    02:00 +5°C° 0.3 mm 6 m/s 746 mmHg 81%
    03:00 +4°C° 0.3 mm 6 m/s 747 mmHg 82%
    04:00 +4°C° 0.2 mm 6 m/s 748 mmHg 81%
    05:00 +4°C° 0.2 mm 6 m/s 748 mmHg 81%
    06:00 +3°C° 0.2 mm 5 m/s 749 mmHg 80%
    07:00 +3°C° 0 mm 5 m/s 750 mmHg 76%
    08:00 +3°C° 0 mm 6 m/s 751 mmHg 73%
    09:00 +3°C° 0 mm 6 m/s 751 mmHg 69%
    10:00 +4°C° 0 mm 6 m/s 752 mmHg 62%
    11:00 +5°C° 0 mm 6 m/s 752 mmHg 56%
    12:00 +7°C° 0 mm 6 m/s 752 mmHg 49%
    13:00 +8°C° 0 mm 6 m/s 752 mmHg 50%
    14:00 +8°C° 0 mm 6 m/s 753 mmHg 50%
    15:00 +9°C° 0 mm 6 m/s 753 mmHg 51%
    16:00 +8°C° 0.1 mm 5 m/s 753 mmHg 59%
    17:00 +7°C° 0.1 mm 4 m/s 753 mmHg 66%
    18:00 +7°C° 0.1 mm 3 m/s 753 mmHg 74%
    19:00 +5°C° 0 mm 3 m/s 753 mmHg 76%
    20:00 +5°C° 0 mm 3 m/s 752 mmHg 78%
    21:00 +4°C° 0 mm 3 m/s 752 mmHg 80%
    22:00 +5°C° 0 mm 4 m/s 752 mmHg 78%
    23:00 +5°C° 0 mm 4 m/s 751 mmHg 77%

    27 Septembre, Jeudi

    Heure Température Précipitation Vent Pression Humidité
    00:00 +5°C° 0 mm 5 m/s 751 mmHg 75%
    01:00 +6°C° 0.3 mm 5 m/s 750 mmHg 78%
    02:00 +5°C° 0.3 mm 6 m/s 749 mmHg 80%
    03:00 +5°C° 0.3 mm 7 m/s 749 mmHg 83%
    04:00 +5°C° 0.5 mm 7 m/s 748 mmHg 83%
    05:00 +5°C° 0.5 mm 8 m/s 747 mmHg 84%
    06:00 +5°C° 0.5 mm 8 m/s 746 mmHg 84%
    07:00 +5°C° 1 mm 9 m/s 746 mmHg 84%
    08:00 +5°C° 1 mm 9 m/s 745 mmHg 84%
    09:00 +5°C° 1 mm 9 m/s 745 mmHg 84%
    10:00 +5°C° 0.8 mm 8 m/s 744 mmHg 84%
    11:00 +6°C° 0.8 mm 8 m/s 744 mmHg 84%
    12:00 +6°C° 0.8 mm 8 m/s 744 mmHg 85%
    13:00 +6°C° 0.3 mm 8 m/s 744 mmHg 84%
    14:00 +8°C° 0.3 mm 7 m/s 744 mmHg 84%
    15:00 +8°C° 0.3 mm 7 m/s 743 mmHg 84%
    16:00 +8°C° 0.5 mm 7 m/s 743 mmHg 85%
    17:00 +7°C° 0.5 mm 8 m/s 743 mmHg 85%
    18:00 +7°C° 0.5 mm 8 m/s 742 mmHg 86%
    19:00 +7°C° 0.3 mm 8 m/s 742 mmHg 87%
    20:00 +7°C° 0.3 mm 8 m/s 742 mmHg 87%
    21:00 +8°C° 0.3 mm 7 m/s 741 mmHg 87%
    22:00 +8°C° 0.4 mm 7 m/s 741 mmHg 88%
    23:00 +8°C° 0.4 mm 7 m/s 741 mmHg 88%

    28 Septembre, Vendredi

    Heure Température Précipitation Vent Pression Humidité
    00:00 +9°C° 0.4 mm 7 m/s 740 mmHg 88%
    01:00 +9°C° 0.4 mm 6 m/s 740 mmHg 89%
    02:00 +9°C° 0.4 mm 6 m/s 740 mmHg 90%
    03:00 +9°C° 0.4 mm 5 m/s 740 mmHg 91%
    04:00 +8°C° 0.1 mm 5 m/s 740 mmHg 90%
    05:00 +8°C° 0.1 mm 5 m/s 741 mmHg 89%
    06:00 +8°C° 0.1 mm 5 m/s 741 mmHg 89%
    07:00 +8°C° 0 mm 6 m/s 741 mmHg 84%
    08:00 +8°C° 0 mm 6 m/s 742 mmHg 80%
    09:00 +9°C° 0 mm 7 m/s 742 mmHg 76%
    10:00 +10°C° 0.1 mm 7 m/s 742 mmHg 70%
    11:00 +10°C° 0.1 mm 7 m/s 743 mmHg 64%
    12:00 +11°C° 0.1 mm 7 m/s 743 mmHg 59%
    13:00 +11°C° 0 mm 7 m/s 743 mmHg 55%
    14:00 +12°C° 0 mm 7 m/s 743 mmHg 52%
    15:00 +12°C° 0 mm 7 m/s 743 mmHg 49%
    16:00 +11°C° 0 mm 6 m/s 743 mmHg 53%
    17:00 +10°C° 0 mm 5 m/s 743 mmHg 57%
    18:00 +10°C° 0 mm 4 m/s 743 mmHg 61%
    19:00 +8°C° 0 mm 4 m/s 743 mmHg 63%
    20:00 +8°C° 0 mm 4 m/s 744 mmHg 65%
    21:00 +7°C° 0 mm 4 m/s 744 mmHg 67%
    22:00 +6°C° 0 mm 4 m/s 744 mmHg 68%
    23:00 +6°C° 0 mm 4 m/s 745 mmHg 68%
    Voir plus